Flag for Belgium Weather past 2 weeks in Brussels, Belgium

Now
59 °F

Scattered clouds.


Feels Like: 57 °F
Forecast: 53 / 62 °F
Wind: 10 mph from Southwest

Location: Brussels National Airport

Current Time: Apr 25, 2015 at 3:37:10 PM

Latest Report: Apr 25, 2015 at 2:50 PM


Visibility: N/A

Pressure: 29.77 "Hg

Humidity: 82%

Dew point: 54 °F

Location of BrusselsLocation

Historic Weather in Brussels — Graph

°F

Brussels temperature yesterday

Maximum temperature yesterday: 70 °F (at 2:20 PM)
Minimum temperature yesterday: 39 °F (at 2:50 AM)
Average temperature yesterday: 58 °F

Past Weeks' High & Low Weather Summary

 TemperatureHumidityPressure
High75 °F (Apr 15, 3:50 PM)100% (Apr 19, 6:50 AM)30.51 "Hg (Apr 19, 6:50 AM)
Low34 °F (Apr 19, 6:20 AM)27% (Apr 10, 4:50 PM)29.77 "Hg (Apr 25, 6:20 AM)
Average52 °F67%30.19 "Hg
* Reported Apr 10 2:20 PM — Apr 25 2:20 PM, Brussels, Weather by CustomWeather, © 2015

Note: Actual official high and low records may vary slightly from our data, if they occured in-between our weather recording intervals... More about our weather records

Advertising

Brussels weather history for previous 24 hours

 ConditionsComfort  
Time TempWeatherWind HumidityBarometerVisibility
2:20 PM
Sat, Apr 25
55 °FScattered clouds.12 mph88%29.77 "HgN/A
1:50 PM55 °FSprinkles. Broken clouds.12 mph88%29.77 "HgN/A
1:20 PM57 °FPartly sunny.12 mph82%29.77 "HgN/A
12:50 PM55 °FSprinkles. Broken clouds.10 mph88%29.77 "HgN/A
12:20 PM57 °FScattered clouds.9 mph82%29.77 "HgN/A
11:50 AM55 °FDrizzle. Partly sunny.9 mph88%29.77 "Hg4 mi
11:20 AM55 °FDrizzle. Broken clouds.12 mph88%29.77 "Hg4 mi
10:50 AM55 °FDrizzle. Partly sunny.7 mph88%29.77 "Hg4 mi
10:20 AM54 °FLight rain. Broken clouds.7 mph88%29.77 "Hg4 mi
9:50 AM52 °FLight rain. Broken clouds.7 mph94%29.77 "Hg5 mi
9:20 AM52 °FLight rain. Scattered clouds.8 mph94%29.77 "Hg6 mi
8:50 AM52 °FLight rain. Passing clouds.7 mph94%29.77 "Hg4 mi
8:20 AM52 °FPassing clouds.7 mph88%29.77 "Hg4 mi
7:50 AM50 °FLight rain. Broken clouds.7 mph88%29.77 "Hg4 mi
7:20 AM50 °FClear.6 mph88%29.77 "Hg6 mi
6:50 AM50 °FLight rain. Clear.5 mph82%29.77 "Hg6 mi
6:20 AM48 °FLight rain. Passing clouds.5 mph87%29.77 "HgN/A
5:50 AM50 °FLight rain. Passing clouds.5 mph82%29.80 "HgN/A
5:20 AM50 °FLight rain. Passing clouds.6 mph82%29.80 "HgN/A
4:50 AM52 °FLight rain. Passing clouds.7 mph82%29.80 "HgN/A
4:20 AM52 °FLight rain. Passing clouds.8 mph77%29.80 "HgN/A
3:50 AM54 °FLight rain. Passing clouds.8 mph67%29.80 "HgN/A
3:20 AM54 °FLight rain. Passing clouds.6 mph72%29.80 "HgN/A
2:50 AM54 °FPassing clouds.5 mph72%29.80 "HgN/A
2:20 AM54 °FPassing clouds.6 mph72%29.83 "HgN/A
1:50 AM54 °FPassing clouds.6 mph72%29.83 "HgN/A
1:20 AM54 °FPassing clouds.7 mph72%29.83 "HgN/A
12:50 AM54 °FPassing clouds.7 mph72%29.83 "HgN/A
12:20 AM54 °FPassing clouds.10 mph67%29.83 "HgN/A
11:50 PM
Fri, Apr 24
55 °FClear.10 mph67%29.83 "Hg10 mi
11:20 PM55 °FClear.12 mph72%29.83 "Hg10 mi
10:50 PM57 °FClear.9 mph72%29.83 "Hg10 mi
10:20 PM59 °FClear.8 mph68%29.83 "Hg10 mi
9:50 PM61 °FSunny.8 mph63%29.83 "Hg10 mi
9:20 PM63 °FSunny.9 mph59%29.83 "Hg10 mi
8:50 PM64 °FSunny.12 mph56%29.83 "Hg10 mi
8:20 PM66 °FSunny.12 mph56%29.83 "Hg10 mi
7:50 PM66 °FSunny.7 mph52%29.80 "Hg10 mi
7:20 PM68 °FSunny.9 mph49%29.83 "Hg10 mi
6:50 PM68 °FSunny.10 mph49%29.83 "Hg10 mi
6:20 PM70 °FPassing clouds.13 mph46%29.83 "HgN/A
5:50 PM70 °FPassing clouds.10 mph43%29.83 "HgN/A
5:20 PM70 °FSunny.13 mph43%29.83 "Hg10 mi
4:50 PM70 °FPassing clouds.9 mph40%29.86 "HgN/A
4:20 PM70 °FPassing clouds.9 mph40%29.86 "HgN/A
3:50 PM70 °FPassing clouds.9 mph38%29.86 "HgN/A
3:20 PM70 °FSunny.13 mph38%29.89 "Hg10 mi
Weather by CustomWeather, © 2015

See weather overviewHow to use our weather pages